• In Belarus
  • List of Countries
  • For 7 days
  • Water Temperature
  • Satellite Maps
  • Weather Map
  • Weather Widgets
  • user-avatar
    Login

    Hourly Weather Ondjiwa

    Today, 23 October, Monday

    Time Temperature Precipitation Wind Pressure Humidity
    00:00 +27°C° 0 mm 4 mps 668 mmHg 43%
    01:00 +26°C° 0 mm 3 mps 668 mmHg 48%
    02:00 +25°C° 0.1 mm 2 mps 668 mmHg 50%
    03:00 +25°C° 0.1 mm 2 mps 667 mmHg 51%
    04:00 +25°C° 0.1 mm 2 mps 667 mmHg 53%
    05:00 +25°C° 0 mm 1 mps 668 mmHg 50%
    06:00 +26°C° 0 mm 1 mps 668 mmHg 48%
    07:00 +27°C° 0 mm 1 mps 669 mmHg 45%
    08:00 +29°C° 0 mm 2 mps 669 mmHg 39%
    09:00 +32°C° 0 mm 2 mps 670 mmHg 32%
    10:00 +35°C° 0 mm 3 mps 670 mmHg 25%
    11:00 +36°C° 0 mm 3 mps 669 mmHg 24%
    12:00 +36°C° 0 mm 3 mps 669 mmHg 24%
    13:00 +36°C° 0 mm 3 mps 668 mmHg 23%
    14:00 +36°C° 0.1 mm 3 mps 668 mmHg 24%
    15:00 +36°C° 0.1 mm 3 mps 667 mmHg 24%
    16:00 +35°C° 0.1 mm 3 mps 667 mmHg 25%
    17:00 +34°C° 0 mm 3 mps 666 mmHg 28%
    18:00 +32°C° 0 mm 2 mps 666 mmHg 30%
    19:00 +30°C° 0 mm 2 mps 666 mmHg 33%
    20:00 +30°C° 0 mm 2 mps 666 mmHg 35%
    21:00 +29°C° 0 mm 2 mps 667 mmHg 37%
    22:00 +28°C° 0 mm 2 mps 667 mmHg 38%
    23:00 +28°C° 0.8 mm 2 mps 667 mmHg 43%

    Tomorrow, 24 October, Tuesday

    Time Temperature Precipitation Wind Pressure Humidity
    00:00 +27°C° 0.8 mm 3 mps 667 mmHg 48%
    01:00 +26°C° 0.8 mm 3 mps 667 mmHg 53%
    02:00 +25°C° 0.3 mm 3 mps 667 mmHg 55%
    03:00 +25°C° 0.3 mm 2 mps 666 mmHg 57%
    04:00 +25°C° 0.3 mm 2 mps 666 mmHg 59%
    05:00 +25°C° 0.1 mm 2 mps 667 mmHg 56%
    06:00 +26°C° 0.1 mm 2 mps 667 mmHg 53%
    07:00 +26°C° 0.1 mm 2 mps 668 mmHg 50%
    08:00 +29°C° 0 mm 2 mps 668 mmHg 44%
    09:00 +31°C° 0 mm 2 mps 669 mmHg 38%
    10:00 +34°C° 0 mm 2 mps 670 mmHg 31%
    11:00 +35°C° 0 mm 2 mps 669 mmHg 29%
    12:00 +36°C° 0 mm 2 mps 669 mmHg 26%
    13:00 +37°C° 0 mm 2 mps 668 mmHg 23%
    14:00 +37°C° 0 mm 2 mps 667 mmHg 23%
    15:00 +37°C° 0 mm 2 mps 667 mmHg 24%
    16:00 +35°C° 0 mm 1 mps 666 mmHg 24%
    17:00 +34°C° 0.3 mm 1 mps 666 mmHg 27%
    18:00 +33°C° 0.3 mm 1 mps 667 mmHg 29%
    19:00 +32°C° 0.3 mm 1 mps 667 mmHg 32%
    20:00 +31°C° 0.5 mm 2 mps 667 mmHg 36%
    21:00 +30°C° 0.5 mm 4 mps 668 mmHg 40%
    22:00 +29°C° 0.5 mm 5 mps 669 mmHg 45%
    23:00 +28°C° 1 mm 4 mps 669 mmHg 50%

    Day after tomorrow, 25 October, Wednesday

    Time Temperature Precipitation Wind Pressure Humidity
    00:00 +26°C° 1 mm 4 mps 668 mmHg 56%
    01:00 +25°C° 1 mm 4 mps 668 mmHg 61%
    02:00 +25°C° 0.5 mm 3 mps 668 mmHg 62%
    03:00 +25°C° 0.5 mm 3 mps 668 mmHg 62%
    04:00 +25°C° 0.5 mm 2 mps 667 mmHg 62%
    05:00 +25°C° 0.2 mm 2 mps 668 mmHg 61%
    06:00 +25°C° 0.2 mm 2 mps 668 mmHg 60%
    07:00 +25°C° 0.2 mm 2 mps 669 mmHg 59%
    08:00 +26°C° 0 mm 2 mps 669 mmHg 54%
    09:00 +27°C° 0 mm 2 mps 669 mmHg 50%
    10:00 +29°C° 0 mm 2 mps 669 mmHg 45%
    11:00 +30°C° 0 mm 2 mps 669 mmHg 41%
    12:00 +31°C° 0 mm 3 mps 668 mmHg 37%
    13:00 +33°C° 0 mm 3 mps 668 mmHg 33%
    14:00 +33°C° 0 mm 3 mps 667 mmHg 33%
    15:00 +33°C° 0 mm 3 mps 667 mmHg 33%
    16:00 +31°C° 0 mm 3 mps 666 mmHg 33%
    17:00 +31°C° 0 mm 2 mps 666 mmHg 35%
    18:00 +30°C° 0 mm 2 mps 666 mmHg 37%
    19:00 +29°C° 0 mm 1 mps 666 mmHg 38%
    20:00 +28°C° 0 mm 1 mps 667 mmHg 40%
    21:00 +28°C° 0 mm 1 mps 667 mmHg 41%
    22:00 +27°C° 0 mm 1 mps 667 mmHg 42%
    23:00 +26°C° 0 mm 2 mps 667 mmHg 45%

    26 October, Thursday

    Time Temperature Precipitation Wind Pressure Humidity
    00:00 +26°C° 0 mm 2 mps 667 mmHg 47%
    01:00 +25°C° 0 mm 2 mps 667 mmHg 49%
    02:00 +25°C° 0 mm 2 mps 666 mmHg 53%
    03:00 +25°C° 0 mm 2 mps 666 mmHg 57%
    04:00 +24°C° 0 mm 1 mps 666 mmHg 61%
    05:00 +25°C° 0 mm 2 mps 667 mmHg 60%
    06:00 +25°C° 0 mm 2 mps 667 mmHg 59%
    07:00 +25°C° 0 mm 2 mps 668 mmHg 58%
    08:00 +27°C° 0 mm 2 mps 668 mmHg 51%
    09:00 +29°C° 0 mm 2 mps 668 mmHg 43%
    10:00 +32°C° 0 mm 2 mps 669 mmHg 35%
    11:00 +34°C° 0 mm 2 mps 668 mmHg 31%
    12:00 +36°C° 0 mm 2 mps 668 mmHg 27%
    13:00 +37°C° 0 mm 2 mps 667 mmHg 23%
    14:00 +37°C° 0 mm 2 mps 667 mmHg 23%
    15:00 +37°C° 0 mm 2 mps 666 mmHg 22%
    16:00 +37°C° 0 mm 2 mps 665 mmHg 22%
    17:00 +36°C° 0 mm 2 mps 665 mmHg 23%
    18:00 +35°C° 0 mm 2 mps 666 mmHg 24%
    19:00 +33°C° 0 mm 1 mps 666 mmHg 26%
    20:00 +33°C° 0 mm 1 mps 666 mmHg 27%
    21:00 +32°C° 0 mm 1 mps 666 mmHg 28%
    22:00 +31°C° 0 mm 2 mps 666 mmHg 29%
    23:00 +30°C° 0 mm 3 mps 666 mmHg 26%

    27 October, Friday

    Time Temperature Precipitation Wind Pressure Humidity
    00:00 +29°C° 0 mm 3 mps 666 mmHg 24%
    01:00 +28°C° 0 mm 4 mps 665 mmHg 21%
    02:00 +27°C° 0 mm 4 mps 665 mmHg 22%
    03:00 +26°C° 0 mm 3 mps 665 mmHg 22%
    04:00 +25°C° 0 mm 2 mps 665 mmHg 23%
    05:00 +26°C° 0 mm 2 mps 666 mmHg 21%
    06:00 +26°C° 0 mm 2 mps 666 mmHg 19%
    07:00 +27°C° 0 mm 2 mps 667 mmHg 17%
    08:00 +29°C° 0 mm 2 mps 667 mmHg 14%
    09:00 +31°C° 0 mm 2 mps 667 mmHg 11%
    10:00 +35°C° 0 mm 2 mps 668 mmHg 8%
    11:00 +36°C° 0 mm 2 mps 667 mmHg 8%
    12:00 +37°C° 0 mm 2 mps 666 mmHg 9%
    13:00 +38°C° 0 mm 2 mps 666 mmHg 9%
    14:00 +38°C° 0 mm 2 mps 665 mmHg 9%
    15:00 +38°C° 0 mm 3 mps 665 mmHg 9%
    16:00 +38°C° 0 mm 3 mps 664 mmHg 9%
    17:00 +36°C° 0 mm 2 mps 664 mmHg 11%
    18:00 +35°C° 0 mm 2 mps 664 mmHg 12%
    19:00 +32°C° 0 mm 1 mps 665 mmHg 14%
    20:00 +31°C° 0 mm 2 mps 665 mmHg 14%
    21:00 +30°C° 0 mm 2 mps 665 mmHg 15%
    22:00 +30°C° 0 mm 2 mps 665 mmHg 16%
    23:00 +29°C° 0 mm 3 mps 665 mmHg 17%

    28 October, Saturday

    Time Temperature Precipitation Wind Pressure Humidity
    00:00 +28°C° 0 mm 3 mps 664 mmHg 17%
    01:00 +27°C° 0 mm 4 mps 664 mmHg 18%
    02:00 +26°C° 0 mm 3 mps 664 mmHg 19%
    03:00 +26°C° 0 mm 3 mps 664 mmHg 21%
    04:00 +25°C° 0 mm 3 mps 664 mmHg 22%
    05:00 +25°C° 0 mm 2 mps 665 mmHg 21%
    06:00 +26°C° 0 mm 2 mps 665 mmHg 21%
    07:00 +27°C° 0 mm 1 mps 666 mmHg 21%
    08:00 +29°C° 0 mm 1 mps 666 mmHg 17%
    09:00 +31°C° 0 mm 2 mps 667 mmHg 14%
    10:00 +34°C° 0 mm 2 mps 667 mmHg 11%
    11:00 +36°C° 0 mm 2 mps 666 mmHg 10%
    12:00 +37°C° 0 mm 2 mps 666 mmHg 9%
    13:00 +38°C° 0 mm 2 mps 665 mmHg 8%
    14:00 +38°C° 0 mm 2 mps 665 mmHg 9%
    15:00 +38°C° 0 mm 2 mps 664 mmHg 9%
    16:00 +38°C° 0 mm 2 mps 664 mmHg 9%
    17:00 +37°C° 0 mm 2 mps 664 mmHg 10%
    18:00 +35°C° 0 mm 3 mps 664 mmHg 11%
    19:00 +33°C° 0 mm 3 mps 664 mmHg 12%
    20:00 +31°C° 0 mm 3 mps 664 mmHg 12%
    21:00 +31°C° 0 mm 3 mps 664 mmHg 13%
    22:00 +30°C° 0 mm 2 mps 664 mmHg 13%
    23:00 +29°C° 0 mm 3 mps 664 mmHg 15%

    29 October, Sunday

    Time Temperature Precipitation Wind Pressure Humidity
    00:00 +28°C° 0 mm 3 mps 663 mmHg 16%
    01:00 +27°C° 0 mm 3 mps 663 mmHg 17%
    02:00 +27°C° 0 mm 3 mps 663 mmHg 19%
    03:00 +26°C° 0 mm 3 mps 663 mmHg 21%
    04:00 +25°C° 0 mm 3 mps 663 mmHg 23%
    05:00 +26°C° 0 mm 3 mps 664 mmHg 22%
    06:00 +26°C° 0 mm 2 mps 665 mmHg 22%
    07:00 +27°C° 0 mm 2 mps 665 mmHg 22%
    08:00 +30°C° 0 mm 2 mps 666 mmHg 20%
    09:00 +32°C° 0 mm 2 mps 666 mmHg 18%
    10:00 +36°C° 0 mm 3 mps 666 mmHg 16%
    11:00 +37°C° 0 mm 2 mps 666 mmHg 16%
    12:00 +38°C° 0 mm 2 mps 666 mmHg 16%
    13:00 +39°C° 0 mm 2 mps 665 mmHg 16%
    14:00 +38°C° 0 mm 3 mps 665 mmHg 19%
    15:00 +37°C° 0 mm 5 mps 664 mmHg 22%
    16:00 +36°C° 0 mm 6 mps 664 mmHg 25%
    17:00 +35°C° 0 mm 5 mps 664 mmHg 27%
    18:00 +34°C° 0 mm 4 mps 665 mmHg 30%
    19:00 +34°C° 0 mm 3 mps 665 mmHg 32%
    20:00 +31°C° 1.5 mm 3 mps 665 mmHg 38%
    21:00 +29°C° 1.5 mm 4 mps 666 mmHg 45%
    22:00 +28°C° 1.5 mm 4 mps 666 mmHg 51%
    23:00 +28°C° 0.3 mm 4 mps 666 mmHg 52%
    Show more